星链-5211 (STARLINK-5211 )

导读 | 星芒AI

STARLINK-5211 是 SpaceX 星链计划中的一颗低轨通信卫星,属于第 52 批发射的星链卫星群。该卫星运行在约 550 公里的近地轨道,旨在为全球用户提供高速互联网服务。它采用先进的相控阵天线和激光通信技术,具备高带宽和低延迟特性。作为星链星座的一部分,STARLINK-5211 有助于增强网络覆盖,特别是在偏远和网络基础设施薄弱的地区。

基本信息
目录编号:
54086
目录名称:
STARLINK-5211
国际标识:
2022-136AM
轨道中心:
EARTH
卫星名称:
星链-5211
卫星全名:
星链-5211 (STARLINK-5211 )
卫星状态:
在轨 (已飞行1111 天)
发射日期:
2022-10-20 UTC
国别 :
美国 (US)
星等 :
--
轨道信息
数据来源 国际轨道数据
星历时间: 2025-11-04T23:09:10+0800
7小时前
查看轨道信息
半长轴: 6917.891km
偏心率: 0.00016
轨道倾角: 53.216°
近地点辐角 91.996°
升交点赤经 160.634°
平近点角 268.122°
近地点: 538.649km
远地点: 540.863km
周期: 95.438分钟
每日圈数: 15.088367
详细信息
固有亮度:
5
最大亮度:
2.5
卫星平台:
Starlink v1.5
覆盖范围:
全球
运营商:
太空探索技术公司
运营商所在国:
美国
制造商(研发单位):
太空探索技术公司
制造商所在国:
美国
使用方式:
暂无
卫星简介
星链(Starlink)计划是由太空探索技术公司(SpaceX)提出的一个巨型低轨卫星互联网星座项目,计划在2019年至2024年间在太空搭建由约1.2万颗卫星组成的“星链”网络,其中1584颗将部署在地球上空550千米处的近地轨道,并从2020年开始工作。该卫星仍在工作。
2D轨道图
3D轨道图
轨道高度分析图
轨道倾角分析图
轨道综合分析图
查看轨道综合分析图